Stations météo

réclame
Mon MeteoGroup
Bingley, Grande-Bretagne (3344): Température de l'air & dewpoint: 22.10.2020 14:00:00 - 28.10.2020 14:00:00 (GMT)Bingley, Grande-Bretagne (3344): Température de l'air -20cm: 22.10.2020 14:00:00 - 28.10.2020 14:00:00 (GMT)Bingley, Grande-Bretagne (3344): Vitesse du vent & gusts: 22.10.2020 14:00:00 - 28.10.2020 14:00:00 (GMT)Bingley, Grande-Bretagne (3344): Direction du vent: 22.10.2020 14:00:00 - 28.10.2020 14:00:00 (GMT)Bingley, Grande-Bretagne (3344): reduced air pressure: 22.10.2020 14:00:00 - 28.10.2020 14:00:00 (GMT)Bingley, Grande-Bretagne (3344): visibility: 22.10.2020 14:00:00 - 28.10.2020 14:00:00 (GMT)Bingley, Grande-Bretagne (3344): Quantités de précipitations: 22.10.2020 14:00:00 - 28.10.2020 14:00:00 (GMT)
Date & Time tt [°C] td [°C] tt -20cm [°C] ff [km/h] ff [knt] fx [km/h] fx [knt] dd ppp [hPa] vv [km] rr [mm]
28.10.2020 14:00:00 7,7 5,5 - 18 10 46 25 SW 995,7 35 0,2
28.10.2020 13:00:00 8,5 5,2 - 24 13 - - SW 995,5 25 0,0
28.10.2020 12:00:00 7,9 5,3 - 29 16 52 28 SW 995,8 5 0,2
28.10.2020 11:00:00 8,1 5,5 - 26 14 52 28 SW 995,4 28 0,0
28.10.2020 10:00:00 6,8 4,6 - 26 14 48 26 SW 995,3 28 0,0
28.10.2020 09:00:00 5,9 4,1 8,9 28 15 46 25 SSW 995,0 30 0,0
28.10.2020 08:00:00 5,6 4,1 - 28 15 46 25 SW 994,6 30 0,0
28.10.2020 07:00:00 5,8 4,3 - 26 14 50 27 SW 993,8 26 0,0
28.10.2020 06:00:00 6,0 4,6 - 26 14 50 27 SW 993,7 28 0,0
28.10.2020 05:00:00 6,3 4,8 - 31 17 52 28 SW 993,1 22 0,0
28.10.2020 04:00:00 5,9 4,7 - 26 14 52 28 SW 993,1 17 0,0
28.10.2020 03:00:00 6,0 4,7 - 28 15 54 29 SW 993,0 17 0,0
28.10.2020 02:00:00 6,0 4,6 - 31 17 54 29 SW 992,8 18 0,0
28.10.2020 01:00:00 5,3 4,0 - 18 10 - - SSW 993,3 14 0,0
28.10.2020 00:00:00 5,5 3,9 - 21 11 - - SW 993,6 15 0,0
27.10.2020 23:00:00 5,3 3,6 - 22 12 - - SW 993,0 19 0,0
27.10.2020 22:00:00 5,7 3,8 - 22 12 - - SW 992,6 23 0,0
27.10.2020 21:00:00 6,1 4,5 - 21 11 - - SW 992,4 14 0,2
27.10.2020 20:00:00 7,0 5,5 - 15 8 - - WSW 992,0 13 0,0
27.10.2020 19:00:00 6,5 4,9 - 24 13 55 30 WSW 991,1 10 1,6
27.10.2020 18:00:00 7,4 5,0 - 22 12 48 26 WSW 989,9 13 0,0
27.10.2020 17:00:00 8,1 5,6 - 22 12 - - WSW 988,9 16 0,0
27.10.2020 16:00:00 7,9 6,9 - 21 11 54 29 W 988,4 12 0,2
27.10.2020 15:00:00 9,9 9,0 - 24 13 50 27 SW 987,8 2,7 0,4
27.10.2020 14:00:00 8,5 8,3 - 16 9 - - SSE 987,9 8 1,6
27.10.2020 13:00:00 8,1 7,8 - 16 9 - - SSE 989,3 4,6 2,0
27.10.2020 12:00:00 8,1 7,8 - 16 9 - - SSE 990,8 2,5 1,0
27.10.2020 11:00:00 7,1 6,9 - 13 7 - - SE 992,2 2,6 0,2
27.10.2020 10:00:00 6,3 6,0 - 15 8 - - SE 993,4 3,6 0,2
27.10.2020 09:00:00 6,5 5,6 9,2 9 5 - - SSE 994,2 7 0,4
27.10.2020 08:00:00 6,1 5,1 - 9 5 - - S 994,9 21 0,0
27.10.2020 07:00:00 5,6 4,8 - 11 6 - - S 995,3 18 0,0
27.10.2020 06:00:00 5,4 4,7 - 15 8 - - SSW 995,6 11 0,0
27.10.2020 05:00:00 5,7 4,8 - 21 11 - - SSW 995,8 11 0,0
27.10.2020 04:00:00 6,6 5,8 - 15 8 - - SW 996,0 8 0,0
27.10.2020 03:00:00 6,8 5,7 - 16 9 - - WSW 996,0 40 0,6
27.10.2020 02:00:00 6,9 5,4 - 15 8 - - WSW 996,4 27 0,0
27.10.2020 01:00:00 7,1 5,7 - 15 8 - - WSW 996,4 17 0,0
27.10.2020 00:00:00 6,8 5,3 - 15 8 - - W 996,5 17 0,0
26.10.2020 23:00:00 7,3 5,5 - 15 8 - - W 996,4 18 0,0
26.10.2020 22:00:00 7,8 5,9 - 18 10 - - W 996,0 16 0,0
26.10.2020 21:00:00 7,4 5,4 - 13 7 - - W 996,2 22 0,0
26.10.2020 20:00:00 7,2 5,4 - 16 9 - - W 995,2 30 0,0
26.10.2020 19:00:00 7,8 5,7 - 21 11 - - W 995,1 22 0,0
26.10.2020 18:00:00 7,9 6,3 - 18 10 - - W 994,5 18 0,0
26.10.2020 17:00:00 8,6 6,0 - 21 11 48 26 W 993,7 18 0,2
26.10.2020 16:00:00 8,9 6,2 - 21 11 46 25 W 993,3 22 0,0
26.10.2020 15:00:00 9,4 5,6 - 21 11 46 25 W 992,8 26 0,0
26.10.2020 14:00:00 9,8 6,5 - 16 9 46 25 W 992,1 23 0,0
26.10.2020 13:00:00 9,2 6,9 - 16 9 - - W 991,8 16 0,2
26.10.2020 12:00:00 8,3 7,0 - 15 8 - - W 991,7 40 2,0
26.10.2020 11:00:00 9,2 7,4 - 16 9 - - W 991,0 2,0 0,0
26.10.2020 10:00:00 8,7 7,9 - 18 10 - - W 990,4 6 0,6
26.10.2020 09:00:00 6,9 6,2 9,2 16 9 - - SW 990,4 9 0,8
26.10.2020 08:00:00 6,6 6,0 - 21 11 - - SSW 990,1 9 0,8
26.10.2020 07:00:00 6,2 5,6 - 21 11 - - SSW 989,6 8 0,6
26.10.2020 06:00:00 6,3 5,2 - 16 9 - - SSW 989,4 21 0,0
26.10.2020 05:00:00 5,7 4,7 - 24 13 - - SSW 989,2 27 0,0
26.10.2020 04:00:00 5,8 4,7 - 24 13 - - SW 989,8 35 0,0
26.10.2020 03:00:00 5,6 4,5 - 26 14 46 25 SW 989,8 29 0,0
26.10.2020 02:00:00 5,6 4,5 - 26 14 - - SW 990,1 35 0,0
26.10.2020 01:00:00 5,6 4,5 - 22 12 - - SSW 990,4 30 0,0
26.10.2020 00:00:00 5,7 4,6 - 22 12 - - SSW 990,8 50 0,0
25.10.2020 23:00:00 5,6 4,4 - 15 8 - - SSW 991,5 45 0,0
25.10.2020 22:00:00 6,1 4,8 - 16 9 - - SSW 991,7 50 0,0
25.10.2020 21:00:00 6,0 4,8 - 18 10 - - SSW 991,7 40 0,0
25.10.2020 20:00:00 6,2 4,6 - 15 8 - - SSW 991,9 45 0,0
25.10.2020 19:00:00 6,5 4,3 - 9 5 - - S 992,0 50 0,0
25.10.2020 18:00:00 7,0 4,9 - 13 7 - - S 991,7 50 0,0
25.10.2020 17:00:00 7,6 4,5 - 11 6 - - S 991,3 45 0,0
25.10.2020 16:00:00 8,8 5,7 - 16 9 - - S 990,8 50 0,0
25.10.2020 15:00:00 8,7 5,6 - 15 8 - - SW 991,3 35 0,0
25.10.2020 14:00:00 9,5 5,6 - 15 8 - - SSW 990,7 40 0,0
25.10.2020 13:00:00 9,4 5,3 - 22 12 46 25 SSW 990,6 30 0,0
25.10.2020 12:00:00 9,5 5,1 - 22 12 48 26 SSW 990,3 21 0,0
25.10.2020 11:00:00 8,8 5,4 - 26 14 48 26 SSW 990,6 50 0,0
25.10.2020 10:00:00 8,4 5,4 - 29 16 59 32 SSW 989,8 35 0,2
25.10.2020 09:00:00 7,1 5,2 9,7 21 11 - - SSW 990,5 13 0,0
25.10.2020 08:00:00 6,7 4,9 - 18 10 46 25 SSW 990,1 30 0,0
25.10.2020 07:00:00 6,4 4,9 - 18 10 - - SSW 990,0 27 0,0
25.10.2020 06:00:00 6,5 4,4 - 22 12 - - SSW 990,0 27 0,0
25.10.2020 05:00:00 5,9 4,0 - 16 9 - - S 990,1 30 0,0
25.10.2020 04:00:00 5,7 4,1 - 16 9 - - SSW 990,0 30 0,0
25.10.2020 03:00:00 6,0 4,4 - 22 12 - - SSW 990,0 45 0,0
25.10.2020 02:00:00 6,1 5,0 - 18 10 - - SSW 990,3 50 0,0
25.10.2020 01:00:00 6,3 5,4 - 18 10 - - SSW 990,7 40 0,0
25.10.2020 00:00:00 - - - - - - - - - - -
24.10.2020 23:00:00 7,2 6,1 - 21 11 - - SSW 990,7 17 0,0
24.10.2020 22:00:00 7,3 6,1 - 16 9 - - SSW 990,5 18 0,0
24.10.2020 21:00:00 7,1 6,3 - 11 6 - - SW 990,6 45 0,0
24.10.2020 20:00:00 7,1 6,4 - 9 5 - - WSW 990,1 40 0,2
24.10.2020 19:00:00 7,3 6,8 - 8 4 - - W 990,2 10 0,8
24.10.2020 18:00:00 7,5 7,2 - 2 1 - - W 990,1 3,2 1,8
24.10.2020 17:00:00 7,7 7,2 - 2 1 - - WNW 990,0 8 2,6
24.10.2020 16:00:00 8,0 6,9 - 5 3 - - W 990,9 8 4,8
24.10.2020 15:00:00 10,0 8,8 - 13 7 - - SSW 991,6 3,0 2,2
24.10.2020 14:00:00 11,4 9,4 - 15 8 - - SSW 992,4 35 0,0
24.10.2020 13:00:00 11,4 9,9 - 21 11 - - SSW 993,5 40 0,4
24.10.2020 12:00:00 11,5 10,0 - 22 12 46 25 S 994,0 9 0,2
24.10.2020 11:00:00 11,6 9,5 - 24 13 63 34 S 994,6 15 0,0
24.10.2020 10:00:00 11,4 9,4 - 26 14 50 27 S 994,8 30 0,0
24.10.2020 09:00:00 10,6 8,1 9,7 22 12 48 26 S 995,4 30 0,0
24.10.2020 08:00:00 8,9 7,2 - 24 13 55 30 S 996,3 28 0,0
24.10.2020 07:00:00 8,2 6,2 - 24 13 54 29 S 996,6 23 0,0
24.10.2020 06:00:00 7,7 5,7 - 31 17 54 29 SSW 997,8 21 0,0
24.10.2020 05:00:00 7,8 5,6 - 26 14 54 29 SSW 998,9 30 0,0
24.10.2020 04:00:00 8,2 5,3 - 22 12 48 26 SSW 1000,3 20 0,0
24.10.2020 03:00:00 7,3 4,8 - 18 10 - - SSW 1001,4 30 0,0
24.10.2020 02:00:00 6,0 4,2 - 16 9 - - SSW 1002,8 21 0,0
24.10.2020 01:00:00 5,6 4,1 - 16 9 - - SSW 1004,0 25 0,0
24.10.2020 00:00:00 5,2 3,9 - 15 8 - - SSW 1004,8 19 0,0
23.10.2020 23:00:00 5,3 4,0 - 13 7 - - SSW 1005,8 21 0,0
23.10.2020 22:00:00 5,4 3,8 - 16 9 - - SSW 1006,2 20 0,0
23.10.2020 21:00:00 5,6 4,0 - 13 7 - - SSW 1006,0 18 0,0
23.10.2020 20:00:00 5,8 3,9 - 11 6 - - SSW 1006,4 25 0,0
23.10.2020 19:00:00 6,5 4,1 - 15 8 - - SW 1006,3 25 0,0
23.10.2020 18:00:00 7,2 4,8 - 13 7 - - WSW 1005,7 28 0,0
23.10.2020 17:00:00 7,3 4,8 - 11 6 - - W 1005,0 17 0,0
23.10.2020 16:00:00 8,1 5,8 - 9 5 - - W 1004,4 17 0,0
23.10.2020 15:00:00 9,4 7,2 - 13 7 - - W 1004,0 45 0,0
23.10.2020 14:00:00 9,3 7,7 - 16 9 - - W 1002,9 40 0,2
23.10.2020 13:00:00 8,5 7,5 - 16 9 - - SSW 1002,6 2,8 0,0
23.10.2020 12:00:00 8,5 7,0 - 26 14 - - SSW 1002,6 5 0,2
23.10.2020 11:00:00 8,1 6,8 - 22 12 - - SSW 1003,0 17 0,2
23.10.2020 10:00:00 7,2 6,2 - 18 10 - - SSW 1003,7 14 0,2
23.10.2020 09:00:00 6,7 5,6 10,2 11 6 - - SSW 1004,2 14 0,0
23.10.2020 08:00:00 6,0 4,8 - 11 6 - - SSW 1004,4 16 0,0
23.10.2020 07:00:00 5,9 3,7 - 9 5 - - S 1004,7 45 0,0
23.10.2020 06:00:00 5,6 2,9 - 11 6 - - SSW 1005,1 45 0,0
23.10.2020 05:00:00 4,8 2,6 - 9 5 - - SSW 1005,7 50 0,0
23.10.2020 04:00:00 4,2 2,1 - 8 4 - - SW 1006,1 40 0,0
23.10.2020 03:00:00 4,5 1,7 - 4 2 - - S 1006,5 40 0,0
23.10.2020 02:00:00 4,9 2,3 - 8 4 - - SSW 1007,3 40 0,0
23.10.2020 01:00:00 4,3 2,2 - 11 6 - - SSW 1007,5 45 0,0
23.10.2020 00:00:00 4,5 2,3 - 8 4 - - SSW 1008,0 50 0,0
22.10.2020 23:00:00 4,2 2,2 - 9 5 - - SSW 1008,2 50 0,0
22.10.2020 22:00:00 5,9 2,9 - 9 5 - - SSW 1008,2 45 0,0
22.10.2020 21:00:00 6,1 2,1 - 11 6 - - SW 1008,2 50 0,0
22.10.2020 20:00:00 7,5 2,1 - 15 8 - - SW 1008,0 45 0,0
22.10.2020 19:00:00 7,3 2,8 - 11 6 - - W 1007,8 50 0,0
22.10.2020 18:00:00 7,7 4,5 - 13 7 - - WSW 1007,4 35 0,0
22.10.2020 17:00:00 7,7 5,2 - 15 8 - - WSW 1007,0 40 0,0
22.10.2020 16:00:00 8,9 4,8 - 18 10 - - WSW 1006,2 40 0,0
22.10.2020 15:00:00 9,1 6,0 - 21 11 - - WSW 1005,5 35 0,0
22.10.2020 14:00:00 9,2 6,7 - 24 13 46 25 WSW 1004,9 30 0,0

tt = Température de l'air
td = dewpoint
tt -20cm = Température de l'air -20cm
ff = Vitesse du vent
fx = gusts
dd = Direction du vent
ppp = reduced air pressure
vv = visibility
rr = Quantités de précipitations

stations d'obs. à proximité